Hourly Weather Kyzylagash

Today, 26 October, Monday

Time Temperature Precipitation Wind Pressure Humidity
00:00 +5°C° 0 mm 5 mps 735 mmHg 92%
01:00 +5°C° 0 mm 5 mps 735 mmHg 92%
02:00 +5°C° 0 mm 5 mps 734 mmHg 92%
03:00 +5°C° 0.2 mm 5 mps 734 mmHg 90%
04:00 +6°C° 0.2 mm 5 mps 733 mmHg 88%
05:00 +5°C° 0.2 mm 6 mps 732 mmHg 86%
06:00 +5°C° 0.2 mm 6 mps 732 mmHg 87%
07:00 +6°C° 0.2 mm 7 mps 731 mmHg 87%
08:00 +6°C° 0.2 mm 7 mps 730 mmHg 88%
09:00 +7°C° 0 mm 8 mps 729 mmHg 86%
10:00 +7°C° 0 mm 8 mps 728 mmHg 84%
11:00 +8°C° 0 mm 9 mps 728 mmHg 82%
12:00 +7°C° 0 mm 9 mps 727 mmHg 81%
13:00 +7°C° 0 mm 8 mps 725 mmHg 80%
14:00 +7°C° 0 mm 8 mps 724 mmHg 79%
15:00 +7°C° 0.4 mm 8 mps 723 mmHg 81%
16:00 +7°C° 0.4 mm 8 mps 723 mmHg 83%
17:00 +7°C° 0.4 mm 8 mps 722 mmHg 85%
18:00 +6°C° 0.1 mm 8 mps 722 mmHg 84%
19:00 +5°C° 0.1 mm 9 mps 721 mmHg 83%
20:00 +5°C° 0.1 mm 9 mps 721 mmHg 82%
21:00 +3°C° 0.1 mm 9 mps 722 mmHg 84%
22:00 +2°C° 0.1 mm 9 mps 722 mmHg 86%
23:00 +1°C° 0.1 mm 10 mps 723 mmHg 88%

Tomorrow, 27 October, Tuesday

Time Temperature Precipitation Wind Pressure Humidity
00:00 0°C° 0.1 mm 10 mps 723 mmHg 88%
01:00 -2°C° 0.1 mm 10 mps 723 mmHg 89%
02:00 -3°C° 0.1 mm 10 mps 724 mmHg 89%
03:00 -3°C° 0 mm 10 mps 724 mmHg 84%
04:00 -3°C° 0 mm 10 mps 724 mmHg 80%
05:00 -4°C° 0 mm 10 mps 724 mmHg 76%
06:00 -4°C° 0 mm 9 mps 724 mmHg 75%
07:00 -4°C° 0 mm 9 mps 724 mmHg 75%
08:00 -5°C° 0 mm 9 mps 724 mmHg 75%
09:00 -4°C° 0 mm 8 mps 724 mmHg 74%
10:00 -4°C° 0 mm 8 mps 724 mmHg 72%
11:00 -2°C° 0 mm 7 mps 725 mmHg 71%
12:00 -2°C° 0 mm 7 mps 725 mmHg 70%
13:00 -1°C° 0 mm 6 mps 725 mmHg 69%
14:00 0°C° 0 mm 5 mps 726 mmHg 67%
15:00 0°C° 0 mm 4 mps 726 mmHg 71%
16:00 +1°C° 0 mm 3 mps 727 mmHg 74%
17:00 +3°C° 0 mm 1 mps 727 mmHg 77%
18:00 +1°C° 0.2 mm 2 mps 728 mmHg 84%
19:00 0°C° 0.2 mm 3 mps 729 mmHg 90%
20:00 -2°C° 0.2 mm 4 mps 729 mmHg 96%
21:00 -3°C° 0.5 mm 6 mps 730 mmHg 95%
22:00 -4°C° 0.5 mm 7 mps 731 mmHg 94%
23:00 -6°C° 0.5 mm 9 mps 732 mmHg 93%

Day after tomorrow, 28 October, Wednesday

Time Temperature Precipitation Wind Pressure Humidity
00:00 -6°C° 0.2 mm 9 mps 732 mmHg 92%
01:00 -7°C° 0.2 mm 8 mps 733 mmHg 92%
02:00 -7°C° 0.2 mm 8 mps 734 mmHg 91%
03:00 -8°C° 0.3 mm 8 mps 735 mmHg 91%
04:00 -8°C° 0.3 mm 8 mps 736 mmHg 91%
05:00 -8°C° 0.3 mm 8 mps 736 mmHg 91%
06:00 -8°C° 0.2 mm 8 mps 737 mmHg 91%
07:00 -10°C° 0.2 mm 8 mps 738 mmHg 91%
08:00 -10°C° 0.2 mm 8 mps 739 mmHg 90%
09:00 -10°C° 0.2 mm 8 mps 740 mmHg 89%
10:00 -10°C° 0.2 mm 8 mps 740 mmHg 89%
11:00 -10°C° 0.2 mm 8 mps 741 mmHg 88%
12:00 -11°C° 0.2 mm 8 mps 742 mmHg 88%
13:00 -11°C° 0.2 mm 7 mps 742 mmHg 89%
14:00 -11°C° 0.2 mm 7 mps 743 mmHg 90%
15:00 -11°C° 0.1 mm 7 mps 744 mmHg 89%
16:00 -12°C° 0.1 mm 7 mps 744 mmHg 89%
17:00 -12°C° 0.1 mm 7 mps 745 mmHg 89%
18:00 -11°C° 0.1 mm 6 mps 746 mmHg 89%
19:00 -11°C° 0.1 mm 6 mps 746 mmHg 89%
20:00 -11°C° 0.1 mm 6 mps 747 mmHg 89%
21:00 -11°C° 0 mm 6 mps 747 mmHg 89%
22:00 -11°C° 0 mm 6 mps 748 mmHg 88%
23:00 -11°C° 0 mm 6 mps 748 mmHg 88%

29 October, Thursday

Time Temperature Precipitation Wind Pressure Humidity
00:00 -12°C° 0 mm 5 mps 749 mmHg 88%
01:00 -12°C° 0 mm 5 mps 749 mmHg 89%
02:00 -12°C° 0 mm 5 mps 749 mmHg 89%
03:00 -12°C° 0 mm 4 mps 750 mmHg 91%
04:00 -12°C° 0 mm 4 mps 750 mmHg 92%
05:00 -14°C° 0 mm 4 mps 750 mmHg 93%
06:00 -14°C° 0 mm 4 mps 751 mmHg 93%
07:00 -14°C° 0 mm 4 mps 751 mmHg 94%
08:00 -13°C° 0 mm 3 mps 751 mmHg 94%
09:00 -12°C° 0 mm 3 mps 752 mmHg 91%
10:00 -10°C° 0 mm 3 mps 752 mmHg 87%
11:00 -9°C° 0 mm 3 mps 752 mmHg 84%
12:00 -10°C° 0 mm 4 mps 752 mmHg 82%
13:00 -9°C° 0 mm 4 mps 752 mmHg 80%
14:00 -8°C° 0 mm 4 mps 752 mmHg 78%
15:00 -8°C° 0 mm 4 mps 752 mmHg 78%
16:00 -9°C° 0 mm 4 mps 752 mmHg 79%
17:00 -9°C° 0 mm 4 mps 752 mmHg 80%
18:00 -8°C° 0 mm 5 mps 752 mmHg 77%
19:00 -8°C° 0 mm 5 mps 752 mmHg 74%
20:00 -9°C° 0 mm 6 mps 751 mmHg 70%
21:00 -9°C° 0 mm 6 mps 751 mmHg 72%
22:00 -9°C° 0 mm 7 mps 750 mmHg 73%
23:00 -8°C° 0 mm 7 mps 750 mmHg 75%

30 October, Friday

Time Temperature Precipitation Wind Pressure Humidity
00:00 -8°C° 0 mm 7 mps 750 mmHg 76%
01:00 -8°C° 0 mm 8 mps 749 mmHg 77%
02:00 -8°C° 0 mm 8 mps 749 mmHg 78%
03:00 -8°C° 0 mm 7 mps 749 mmHg 80%
04:00 -7°C° 0 mm 7 mps 749 mmHg 82%
05:00 -7°C° 0 mm 7 mps 749 mmHg 85%
06:00 -7°C° 0 mm 7 mps 749 mmHg 86%
07:00 -6°C° 0 mm 6 mps 749 mmHg 88%
08:00 -6°C° 0 mm 6 mps 750 mmHg 90%
09:00 -5°C° 0 mm 6 mps 750 mmHg 90%
10:00 -5°C° 0 mm 6 mps 750 mmHg 90%
11:00 -4°C° 0 mm 5 mps 750 mmHg 89%
12:00 -4°C° 0 mm 5 mps 750 mmHg 89%
13:00 -3°C° 0 mm 6 mps 750 mmHg 89%
14:00 -2°C° 0 mm 6 mps 750 mmHg 89%
15:00 -3°C° 0 mm 6 mps 751 mmHg 89%
16:00 -2°C° 0 mm 5 mps 751 mmHg 89%
17:00 -4°C° 0 mm 5 mps 751 mmHg 89%
18:00 -4°C° 0 mm 5 mps 751 mmHg 88%
19:00 -5°C° 0 mm 6 mps 751 mmHg 86%
20:00 -5°C° 0 mm 6 mps 751 mmHg 85%
21:00 -5°C° 0 mm 5 mps 751 mmHg 84%
22:00 -5°C° 0 mm 5 mps 751 mmHg 83%
23:00 -6°C° 0 mm 5 mps 751 mmHg 82%

31 October, Saturday

Time Temperature Precipitation Wind Pressure Humidity
00:00 -6°C° 0 mm 5 mps 751 mmHg 81%
01:00 -6°C° 0 mm 5 mps 751 mmHg 80%
02:00 -6°C° 0 mm 5 mps 751 mmHg 79%
03:00 -6°C° 0 mm 5 mps 751 mmHg 78%
04:00 -5°C° 0 mm 5 mps 750 mmHg 78%
05:00 -5°C° 0 mm 5 mps 750 mmHg 78%
06:00 -5°C° 0 mm 5 mps 750 mmHg 77%
07:00 -5°C° 0 mm 5 mps 750 mmHg 76%
08:00 -5°C° 0 mm 5 mps 750 mmHg 75%
09:00 -4°C° 0 mm 5 mps 750 mmHg 74%
10:00 -2°C° 0 mm 5 mps 750 mmHg 73%
11:00 -1°C° 0 mm 6 mps 750 mmHg 72%
Show more

We Need Your Consent

Meteoprog and our Service Providers may store and access personal data such as cookies, device identifiers or other similar technologies on your device and process such data to personalise content and ads, as well as provide social media features and to analyse the traffic.

  • Store and/or access information on your device

    Cookies, device identifiers or other information can be stored or accessed on your device for the purposes indicated above.

  • Personalised ads and content, ad and content measurement, audience insights, and products development

    Ads and content can be personalised based on a profile. More data can be added to better personalise ads and content. Ad and content performance can be measured. Insights about the audience who saw the ads and content can be derived. Such data can be used to develop or improve user’s experience, systems and software.

By clicking ‘I Agree’ you will allow the use of indicated cookies, device identifiers, web beacons or other similar technologies. Your settings can be changed in the browser on your device.

For certain purposes, legitimate interests may be relied on, rather than consent. You can read more about this in our Privacy and Cookie Policy.